TimeEDT,TemperatureF,Dew PointF,Humidity,Sea Level PressureIn,VisibilityMPH,Wind Direction,Wind SpeedMPH,Gust SpeedMPH,PrecipitationIn,Events,Conditions,WindDirDegrees,DateUTC
12:53 AM,77.0,71.1,82,29.98,10.0,SSE,12.7,-,N/A,,Scattered Clouds,160,2013-04-30 04:53:00
1:53 AM,77.0,70.0,79,29.96,10.0,South,8.1,-,N/A,,Clear,170,2013-04-30 05:53:00
2:53 AM,77.0,70.0,79,29.94,10.0,SSE,9.2,-,N/A,,Clear,160,2013-04-30 06:53:00
3:53 AM,77.0,70.0,79,29.95,10.0,South,6.9,-,N/A,,Clear,180,2013-04-30 07:53:00
4:53 AM,77.0,69.1,76,29.94,10.0,South,8.1,-,N/A,,Mostly Cloudy,170,2013-04-30 08:53:00
5:53 AM,77.0,69.1,76,29.94,10.0,SSE,6.9,-,N/A,,Clear,160,2013-04-30 09:53:00
6:53 AM,75.9,70.0,82,29.97,10.0,South,5.8,-,N/A,,Clear,180,2013-04-30 10:53:00
7:53 AM,77.0,70.0,79,29.99,10.0,SW,3.5,-,N/A,,Scattered Clouds,230,2013-04-30 11:53:00
8:31 AM,78.8,69.8,74,29.99,10.0,SW,4.6,-,N/A,,Mostly Cloudy,230,2013-04-30 12:31:00
8:53 AM,79.0,70.0,74,30.00,10.0,SW,3.5,-,N/A,,Mostly Cloudy,220,2013-04-30 12:53:00
9:50 AM,78.8,69.8,74,30.00,10.0,South,11.5,19.6,N/A,,Scattered Clouds,170,2013-04-30 13:50:00
9:53 AM,79.0,69.1,72,30.01,10.0,SSE,10.4,19.6,N/A,,Scattered Clouds,160,2013-04-30 13:53:00
10:53 AM,82.9,69.1,63,30.00,10.0,SSE,12.7,-,N/A,,Scattered Clouds,150,2013-04-30 14:53:00
11:53 AM,81.0,70.0,69,29.99,10.0,SE,12.7,-,N/A,,Mostly Cloudy,130,2013-04-30 15:53:00
12:29 PM,78.8,71.6,78,29.99,4.0,North,10.4,-,0.07,Rain-Thunderstorm,Light Thunderstorms and Rain,360,2013-04-30 16:29:00
12:35 PM,75.2,73.4,94,29.99,2.5,North,15.0,-,0.16,Rain-Thunderstorm,Heavy Thunderstorms and Rain,360,2013-04-30 16:35:00
12:41 PM,73.4,71.6,94,30.01,0.8,North,4.6,-,0.44,Rain-Thunderstorm,Heavy Thunderstorms and Rain,350,2013-04-30 16:41:00
12:47 PM,73.4,71.6,94,30.03,0.2,SW,18.4,32.2,0.89,Fog-Rain-Thunderstorm,Heavy Thunderstorms and Rain,230,2013-04-30 16:47:00
12:48 PM,72.0,71.1,97,30.04,0.2,WSW,23.0,32.2,0.96,Fog-Rain-Thunderstorm,Heavy Thunderstorms and Rain,240,2013-04-30 16:48:00
1:07 PM,69.8,68.0,94,30.00,0.8,West,5.8,-,0.85,Rain,Heavy Rain,260,2013-04-30 17:07:00
1:14 PM,69.8,68.0,94,30.00,2.0,SW,3.5,-,0.87,Rain,Rain,220,2013-04-30 17:14:00
1:21 PM,69.8,69.8,100,30.00,3.0,SSW,5.8,-,0.89,Rain,Rain,200,2013-04-30 17:21:00
1:53 PM,72.0,71.1,97,29.98,5.0,WSW,6.9,-,0.95,Rain,Light Rain,240,2013-04-30 17:53:00
2:53 PM,75.0,71.1,87,29.99,10.0,SSW,3.5,-,0.01,,Mostly Cloudy,200,2013-04-30 18:53:00
3:53 PM,75.9,69.1,79,29.98,10.0,SSE,10.4,-,0.00,Rain,Light Rain,150,2013-04-30 19:53:00
4:53 PM,75.9,69.1,79,29.97,10.0,SE,8.1,-,0.00,,Overcast,130,2013-04-30 20:53:00
5:53 PM,75.9,72.0,87,29.97,10.0,East,5.8,-,N/A,,Clear,100,2013-04-30 21:53:00
6:53 PM,77.0,70.0,79,29.97,10.0,SE,6.9,-,N/A,,Clear,130,2013-04-30 22:53:00
7:53 PM,75.9,72.0,87,29.97,10.0,SSE,4.6,-,N/A,,Clear,160,2013-04-30 23:53:00
8:53 PM,75.0,69.1,82,29.97,10.0,SSE,5.8,-,N/A,,Clear,160,2013-05-01 00:53:00
9:53 PM,75.0,69.1,82,29.99,10.0,Calm,Calm,-,N/A,,Clear,0,2013-05-01 01:53:00
10:53 PM,72.0,69.1,91,30.00,10.0,Calm,Calm,-,N/A,,Clear,0,2013-05-01 02:53:00
11:53 PM,72.0,69.1,91,29.99,10.0,Calm,Calm,-,N/A,,Clear,0,2013-05-01 03:53:00